Time,TemperatureF,DewpointF,PressureIn,WindDirection,WindDirectionDegrees,WindSpeedMPH,WindSpeedGustMPH,Humidity,HourlyPrecipIn,Conditions,Clouds,dailyrainin,SoftwareType,DateUTC
2013-08-28 00:05:00,72.8,66.3,29.99,SW,222,4.0,4.0,80,0.00,,,0.00,Wunderground v.1.15,2013-08-28 04:05:00,
2013-08-28 00:10:00,72.7,66.2,29.99,WSW,237,4.0,4.0,80,0.00,,,0.00,Wunderground v.1.15,2013-08-28 04:10:00,
2013-08-28 00:20:00,72.5,66.0,29.99,SW,221,4.0,4.0,80,0.00,,,0.00,Wunderground v.1.15,2013-08-28 04:20:00,
2013-08-28 00:30:00,72.3,66.1,29.99,SW,232,3.0,3.0,81,0.00,,,0.00,Wunderground v.1.15,2013-08-28 04:30:00,
2013-08-28 00:40:00,72.2,66.0,29.99,SW,229,3.0,4.0,81,0.00,,,0.00,Wunderground v.1.15,2013-08-28 04:40:00,
2013-08-28 00:55:00,72.2,66.0,29.99,SW,234,3.0,3.0,81,0.00,,,0.00,Wunderground v.1.15,2013-08-28 04:55:00,
2013-08-28 01:05:00,72.0,65.8,29.98,WSW,250,3.0,3.0,81,0.00,,,0.00,Wunderground v.1.15,2013-08-28 05:05:00,
2013-08-28 01:15:00,71.9,65.8,29.98,WSW,240,3.0,3.0,81,0.00,,,0.00,Wunderground v.1.15,2013-08-28 05:15:00,
2013-08-28 01:19:00,71.9,65.8,29.98,SW,229,3.0,4.0,81,0.00,,,0.00,Wunderground v.1.15,2013-08-28 05:19:00,
2013-08-28 01:25:00,71.8,65.7,29.98,SW,215,3.0,4.0,81,0.00,,,0.00,Wunderground v.1.15,2013-08-28 05:25:00,
2013-08-28 01:40:00,72.0,65.5,29.98,SW,216,4.0,4.0,80,0.00,,,0.00,Wunderground v.1.15,2013-08-28 05:40:00,
2013-08-28 01:54:00,72.1,65.6,29.97,SW,219,3.0,5.0,80,0.00,,,0.00,Wunderground v.1.15,2013-08-28 05:54:00,
2013-08-28 02:04:00,72.1,65.6,29.97,WSW,254,4.0,4.0,80,0.00,,,0.00,Wunderground v.1.15,2013-08-28 06:04:00,
2013-08-28 02:19:00,72.1,65.6,29.97,WSW,247,4.0,7.0,80,0.00,,,0.00,Wunderground v.1.15,2013-08-28 06:19:00,
2013-08-28 02:29:00,72.1,65.9,29.96,SW,222,3.0,3.0,81,0.00,,,0.00,Wunderground v.1.15,2013-08-28 06:29:00,
2013-08-28 02:39:00,72.1,65.9,29.96,SW,233,3.0,4.0,81,0.00,,,0.00,Wunderground v.1.15,2013-08-28 06:39:00,
2013-08-28 02:49:00,72.0,65.8,29.96,WSW,247,3.0,3.0,81,0.00,,,0.00,Wunderground v.1.15,2013-08-28 06:49:00,
2013-08-28 03:00:00,72.0,65.8,29.96,SW,233,3.0,3.0,81,0.00,,,0.00,Wunderground v.1.15,2013-08-28 07:00:00,
2013-08-28 03:14:00,72.0,66.2,29.96,SW,227,4.0,4.0,82,0.00,,,0.00,Wunderground v.1.15,2013-08-28 07:14:00,
2013-08-28 03:24:00,71.8,66.0,29.95,SW,231,3.0,5.0,82,0.00,,,0.00,Wunderground v.1.15,2013-08-28 07:24:00,
2013-08-28 03:34:00,71.6,66.2,29.95,SW,227,3.0,6.0,83,0.00,,,0.00,Wunderground v.1.15,2013-08-28 07:34:00,
2013-08-28 03:45:00,71.4,66.3,29.95,WSW,245,4.0,6.0,84,0.00,,,0.00,Wunderground v.1.15,2013-08-28 07:45:00,
2013-08-28 03:55:00,71.3,66.2,29.95,SW,219,4.0,4.0,84,0.00,,,0.00,Wunderground v.1.15,2013-08-28 07:55:00,
2013-08-28 04:09:00,71.1,66.4,29.94,SW,235,3.0,3.0,85,0.00,,,0.00,Wunderground v.1.15,2013-08-28 08:09:00,
2013-08-28 04:19:00,71.0,66.6,29.94,SW,236,3.0,3.0,86,0.00,,,0.00,Wunderground v.1.15,2013-08-28 08:19:00,
2013-08-28 04:29:00,70.8,66.4,29.94,West,261,2.0,2.0,86,0.00,,,0.00,Wunderground v.1.15,2013-08-28 08:29:00,
2013-08-28 04:40:00,70.8,66.7,29.94,West,262,1.0,1.0,87,0.00,,,0.00,Wunderground v.1.15,2013-08-28 08:40:00,
2013-08-28 04:54:00,71.1,67.0,29.95,WSW,238,2.0,3.0,87,0.00,,,0.00,Wunderground v.1.15,2013-08-28 08:54:00,
2013-08-28 05:04:00,71.2,67.1,29.95,West,267,2.0,4.0,87,0.00,,,0.00,Wunderground v.1.15,2013-08-28 09:04:00,
2013-08-28 05:14:00,71.1,67.4,29.94,West,264,1.0,2.0,88,0.00,,,0.00,Wunderground v.1.15,2013-08-28 09:14:00,
2013-08-28 05:24:00,71.0,67.3,29.95,WSW,256,1.0,1.0,88,0.00,,,0.00,Wunderground v.1.15,2013-08-28 09:24:00,
2013-08-28 05:35:00,70.8,67.1,29.95,WSW,257,1.0,1.0,88,0.00,,,0.00,Wunderground v.1.15,2013-08-28 09:35:00,
2013-08-28 05:45:00,70.7,67.3,29.95,WSW,255,2.0,2.0,89,0.00,,,0.00,Wunderground v.1.15,2013-08-28 09:45:00,
2013-08-28 05:59:00,70.5,67.4,29.95,WSW,255,0.0,3.0,90,0.00,,,0.00,Wunderground v.1.15,2013-08-28 09:59:00,
2013-08-28 06:09:00,70.3,67.2,29.95,SW,233,1.0,1.0,90,0.00,,,0.00,Wunderground v.1.15,2013-08-28 10:09:00,
2013-08-28 06:19:00,70.3,67.2,29.95,WSW,237,1.0,1.0,90,0.00,,,0.00,Wunderground v.1.15,2013-08-28 10:19:00,
2013-08-28 06:30:00,70.1,67.3,29.95,WSW,248,2.0,2.0,91,0.00,,,0.00,Wunderground v.1.15,2013-08-28 10:30:00,
2013-08-28 06:44:00,70.0,67.3,29.95,WSW,257,1.0,2.0,91,0.00,,,0.00,Wunderground v.1.15,2013-08-28 10:44:00,
2013-08-28 06:54:00,69.9,67.2,29.96,West,259,2.0,2.0,91,0.00,,,0.00,Wunderground v.1.15,2013-08-28 10:54:00,
2013-08-28 07:04:00,69.9,67.5,29.96,WSW,250,1.0,1.0,92,0.00,,,0.00,Wunderground v.1.15,2013-08-28 11:04:00,
2013-08-28 07:15:00,69.9,67.5,29.96,WSW,238,3.0,3.0,92,0.00,,,0.00,Wunderground v.1.15,2013-08-28 11:15:00,
2013-08-28 07:25:00,70.1,67.7,29.96,WSW,242,3.0,6.0,92,0.00,,,0.00,Wunderground v.1.15,2013-08-28 11:25:00,
2013-08-28 07:39:00,70.4,67.6,29.96,NW,315,4.0,4.0,91,0.00,,,0.00,Wunderground v.1.15,2013-08-28 11:39:00,
2013-08-28 07:49:00,70.8,68.0,29.96,WSW,253,4.0,4.0,91,0.00,,,0.00,Wunderground v.1.15,2013-08-28 11:49:00,
2013-08-28 07:59:00,71.2,68.4,29.96,West,269,3.0,4.0,91,0.00,,,0.00,Wunderground v.1.15,2013-08-28 11:59:00,
2013-08-28 08:09:00,71.7,68.6,29.97,West,274,5.0,5.0,90,0.00,,,0.00,Wunderground v.1.15,2013-08-28 12:09:00,
2013-08-28 08:20:00,72.2,68.8,29.97,West,261,4.0,4.0,89,0.00,,,0.00,Wunderground v.1.15,2013-08-28 12:20:00,
2013-08-28 08:34:00,73.2,69.1,29.97,WNW,284,4.0,5.0,87,0.00,,,0.00,Wunderground v.1.15,2013-08-28 12:34:00,
2013-08-28 08:44:00,73.8,69.3,29.97,West,270,5.0,5.0,86,0.00,,,0.00,Wunderground v.1.15,2013-08-28 12:44:00,
2013-08-28 08:54:00,74.6,69.8,29.97,WNW,283,4.0,7.0,85,0.00,,,0.00,Wunderground v.1.15,2013-08-28 12:54:00,
2013-08-28 09:05:00,75.4,69.9,29.97,West,281,3.0,5.0,83,0.00,,,0.00,Wunderground v.1.15,2013-08-28 13:05:00,
2013-08-28 09:15:00,75.8,69.9,29.96,West,263,4.0,4.0,82,0.00,,,0.00,Wunderground v.1.15,2013-08-28 13:15:00,
2013-08-28 09:29:00,77.1,70.8,29.97,WNW,285,3.0,5.0,81,0.00,,,0.00,Wunderground v.1.15,2013-08-28 13:29:00,
2013-08-28 09:39:00,78.1,71.1,29.97,West,270,2.0,3.0,79,0.00,,,0.00,Wunderground v.1.15,2013-08-28 13:39:00,
2013-08-28 09:49:00,78.3,70.5,29.97,West,259,3.0,3.0,77,0.00,,,0.00,Wunderground v.1.15,2013-08-28 13:49:00,
2013-08-28 10:00:00,79.2,71.0,29.97,WNW,302,3.0,3.0,76,0.00,,,0.00,Wunderground v.1.15,2013-08-28 14:00:00,
2013-08-28 10:14:00,79.9,71.3,29.97,West,263,3.0,4.0,75,0.00,,,0.00,Wunderground v.1.15,2013-08-28 14:14:00,
2013-08-28 10:24:00,80.3,71.6,29.97,WNW,290,2.0,2.0,75,0.00,,,0.00,Wunderground v.1.15,2013-08-28 14:24:00,
2013-08-28 10:34:00,80.9,71.0,29.97,WNW,282,4.0,4.0,72,0.00,,,0.00,Wunderground v.1.15,2013-08-28 14:34:00,
2013-08-28 10:44:00,82.0,72.1,29.96,WNW,303,3.0,4.0,72,0.00,,,0.00,Wunderground v.1.15,2013-08-28 14:44:00,
2013-08-28 10:55:00,82.2,71.4,29.96,WSW,257,3.0,3.0,70,0.00,,,0.00,Wunderground v.1.15,2013-08-28 14:55:00,
2013-08-28 11:09:00,83.4,72.2,29.96,West,265,3.0,4.0,69,0.00,,,0.00,Wunderground v.1.15,2013-08-28 15:09:00,
2013-08-28 11:19:00,83.6,71.9,29.96,WSW,242,3.0,3.0,68,0.00,,,0.00,Wunderground v.1.15,2013-08-28 15:19:00,
2013-08-28 11:29:00,83.6,71.0,29.97,West,267,5.0,8.0,66,0.00,,,0.00,Wunderground v.1.15,2013-08-28 15:29:00,
2013-08-28 11:40:00,83.8,71.7,29.97,WSW,254,5.0,5.0,67,0.00,,,0.00,Wunderground v.1.15,2013-08-28 15:40:00,
2013-08-28 11:54:00,84.8,71.7,29.97,WSW,254,5.0,5.0,65,0.00,,,0.00,Wunderground v.1.15,2013-08-28 15:54:00,
2013-08-28 12:04:00,84.7,72.1,29.97,WSW,246,4.0,4.0,66,0.00,,,0.00,Wunderground v.1.15,2013-08-28 16:04:00,
2013-08-28 12:14:00,85.8,72.2,29.97,WNW,286,3.0,3.0,64,0.00,,,0.00,Wunderground v.1.15,2013-08-28 16:14:00,
2013-08-28 12:24:00,86.0,72.4,29.97,NW,317,4.0,4.0,64,0.00,,,0.00,Wunderground v.1.15,2013-08-28 16:24:00,
2013-08-28 12:35:00,85.8,72.7,29.96,NW,304,4.0,4.0,65,0.00,,,0.00,Wunderground v.1.15,2013-08-28 16:35:00,
2013-08-28 12:49:00,85.6,71.1,29.96,WSW,252,7.0,7.0,62,0.00,,,0.00,Wunderground v.1.15,2013-08-28 16:49:00,
2013-08-28 12:59:00,86.0,71.5,29.96,West,278,5.0,5.0,62,0.00,,,0.00,Wunderground v.1.15,2013-08-28 16:59:00,
2013-08-28 13:09:00,86.3,72.2,29.95,West,262,4.0,4.0,63,0.00,,,0.00,Wunderground v.1.15,2013-08-28 17:09:00,
2013-08-28 13:20:00,87.0,71.9,29.95,SW,236,5.0,6.0,61,0.00,,,0.00,Wunderground v.1.15,2013-08-28 17:20:00,
2013-08-28 13:34:00,86.9,71.8,29.95,WSW,248,5.0,5.0,61,0.00,,,0.00,Wunderground v.1.15,2013-08-28 17:34:00,
2013-08-28 13:44:00,87.8,71.7,29.95,WSW,245,4.0,7.0,59,0.00,,,0.00,Wunderground v.1.15,2013-08-28 17:44:00,
2013-08-28 13:54:00,88.2,72.1,29.95,SW,231,5.0,5.0,59,0.00,,,0.00,Wunderground v.1.15,2013-08-28 17:54:00,
2013-08-28 14:04:00,87.7,72.1,29.95,NW,312,5.0,5.0,60,0.00,,,0.00,Wunderground v.1.15,2013-08-28 18:04:00,
2013-08-28 14:14:00,87.9,71.3,29.94,NNW,342,5.0,5.0,58,0.00,,,0.00,Wunderground v.1.15,2013-08-28 18:14:00,
2013-08-28 14:29:00,88.1,71.5,29.93,West,274,5.0,5.0,58,0.00,,,0.00,Wunderground v.1.15,2013-08-28 18:29:00,
2013-08-28 14:39:00,88.7,70.5,29.93,WSW,243,5.0,5.0,55,0.00,,,0.00,Wunderground v.1.15,2013-08-28 18:39:00,
2013-08-28 14:49:00,88.7,71.5,29.93,WNW,294,6.0,6.0,57,0.00,,,0.00,Wunderground v.1.15,2013-08-28 18:49:00,
2013-08-28 14:59:00,88.8,71.6,29.93,SW,227,6.0,8.0,57,0.00,,,0.00,Wunderground v.1.15,2013-08-28 18:59:00,
2013-08-28 15:10:00,88.1,70.9,29.93,WSW,254,7.0,13.0,57,0.00,,,0.00,Wunderground v.1.15,2013-08-28 19:10:00,
2013-08-28 15:24:00,89.4,70.6,29.92,NW,315,5.0,5.0,54,0.00,,,0.00,Wunderground v.1.15,2013-08-28 19:24:00,
2013-08-28 15:34:00,88.6,70.9,29.92,WSW,246,4.0,4.0,56,0.00,,,0.00,Wunderground v.1.15,2013-08-28 19:34:00,
2013-08-28 15:44:00,89.2,71.5,29.92,WNW,285,5.0,6.0,56,0.00,,,0.00,Wunderground v.1.15,2013-08-28 19:44:00,
2013-08-28 15:54:00,88.4,71.7,29.92,WNW,286,4.0,4.0,58,0.00,,,0.00,Wunderground v.1.15,2013-08-28 19:54:00,
2013-08-28 16:09:00,89.5,71.2,29.91,West,260,4.0,6.0,55,0.00,,,0.00,Wunderground v.1.15,2013-08-28 20:09:00,
2013-08-28 16:19:00,88.3,71.1,29.91,West,267,6.0,6.0,57,0.00,,,0.00,Wunderground v.1.15,2013-08-28 20:19:00,
2013-08-28 16:29:00,88.4,72.2,29.90,West,281,5.0,5.0,59,0.00,,,0.00,Wunderground v.1.15,2013-08-28 20:29:00,
2013-08-28 16:44:00,88.7,72.5,29.90,WSW,246,4.0,4.0,59,0.00,,,0.00,Wunderground v.1.15,2013-08-28 20:44:00,
2013-08-28 16:54:00,88.5,72.3,29.89,WSW,256,5.0,7.0,59,0.00,,,0.00,Wunderground v.1.15,2013-08-28 20:54:00,
2013-08-28 17:04:00,88.0,72.4,29.90,West,279,6.0,6.0,60,0.00,,,0.00,Wunderground v.1.15,2013-08-28 21:04:00,
2013-08-28 17:14:00,87.7,72.1,29.89,West,278,5.0,5.0,60,0.00,,,0.00,Wunderground v.1.15,2013-08-28 21:14:00,
2013-08-28 17:25:00,87.8,72.7,29.89,West,263,4.0,6.0,61,0.00,,,0.00,Wunderground v.1.15,2013-08-28 21:25:00,
2013-08-28 17:39:00,87.2,72.6,29.90,SW,230,5.0,5.0,62,0.00,,,0.00,Wunderground v.1.15,2013-08-28 21:39:00,
2013-08-28 17:49:00,87.0,72.9,29.89,WSW,258,4.0,4.0,63,0.00,,,0.00,Wunderground v.1.15,2013-08-28 21:49:00,
2013-08-28 17:59:00,86.8,73.6,29.89,West,275,4.0,4.0,65,0.00,,,0.00,Wunderground v.1.15,2013-08-28 21:59:00,
2013-08-28 18:09:00,87.2,73.5,29.89,SW,234,4.0,4.0,64,0.00,,,0.00,Wunderground v.1.15,2013-08-28 22:09:00,
2013-08-28 18:20:00,87.1,73.4,29.89,West,265,4.0,4.0,64,0.00,,,0.00,Wunderground v.1.15,2013-08-28 22:20:00,
2013-08-28 18:34:00,86.4,73.2,29.89,West,267,4.0,4.0,65,0.00,,,0.00,Wunderground v.1.15,2013-08-28 22:34:00,
2013-08-28 18:44:00,85.9,73.2,29.89,West,259,3.0,6.0,66,0.00,,,0.00,Wunderground v.1.15,2013-08-28 22:44:00,
2013-08-28 18:54:00,85.7,73.5,29.89,West,259,4.0,4.0,67,0.00,,,0.00,Wunderground v.1.15,2013-08-28 22:54:00,
2013-08-28 19:04:00,85.5,73.7,29.89,WNW,285,3.0,4.0,68,0.00,,,0.00,Wunderground v.1.15,2013-08-28 23:04:00,
2013-08-28 19:15:00,85.2,73.9,29.89,West,261,2.0,3.0,69,0.00,,,0.00,Wunderground v.1.15,2013-08-28 23:15:00,
2013-08-28 19:29:00,84.7,73.4,29.90,SW,232,3.0,3.0,69,0.00,,,0.00,Wunderground v.1.15,2013-08-28 23:29:00,
2013-08-28 19:39:00,84.2,73.3,29.90,WNW,284,3.0,3.0,70,0.00,,,0.00,Wunderground v.1.15,2013-08-28 23:39:00,
2013-08-28 19:49:00,83.8,73.0,29.90,SW,231,3.0,4.0,70,0.00,,,0.00,Wunderground v.1.15,2013-08-28 23:49:00,
2013-08-28 19:59:00,83.6,73.2,29.90,SW,231,3.0,5.0,71,0.00,,,0.00,Wunderground v.1.15,2013-08-28 23:59:00,
2013-08-28 20:10:00,83.2,73.2,29.90,SW,232,3.0,3.0,72,0.00,,,0.00,Wunderground v.1.15,2013-08-29 00:10:00,
2013-08-28 20:24:00,82.9,73.4,29.91,West,276,2.0,2.0,73,0.00,,,0.00,Wunderground v.1.15,2013-08-29 00:24:00,
2013-08-28 20:34:00,82.7,73.2,29.91,SW,234,3.0,3.0,73,0.00,,,0.00,Wunderground v.1.15,2013-08-29 00:34:00,
2013-08-28 20:44:00,82.5,73.8,29.91,SW,235,2.0,2.0,75,0.00,,,0.00,Wunderground v.1.15,2013-08-29 00:44:00,
2013-08-28 20:54:00,82.4,73.3,29.91,WSW,254,3.0,3.0,74,0.00,,,0.00,Wunderground v.1.15,2013-08-29 00:54:00,
2013-08-28 21:09:00,82.1,73.4,29.91,SW,229,3.0,4.0,75,0.00,,,0.00,Wunderground v.1.15,2013-08-29 01:09:00,
2013-08-28 21:19:00,81.7,73.4,29.91,WSW,244,3.0,4.0,76,0.00,,,0.00,Wunderground v.1.15,2013-08-29 01:19:00,
2013-08-28 21:29:00,81.2,73.3,29.91,SW,234,3.0,3.0,77,0.00,,,0.00,Wunderground v.1.15,2013-08-29 01:29:00,
2013-08-28 21:40:00,80.9,73.4,29.91,SW,232,3.0,3.0,78,0.00,,,0.00,Wunderground v.1.15,2013-08-29 01:40:00,
2013-08-28 21:54:00,80.5,73.8,29.91,SW,234,5.0,5.0,80,0.00,,,0.00,Wunderground v.1.15,2013-08-29 01:54:00,
2013-08-28 22:04:00,80.0,73.6,29.92,SW,221,5.0,5.0,81,0.00,,,0.00,Wunderground v.1.15,2013-08-29 02:04:00,
2013-08-28 22:14:00,79.5,73.5,29.92,WSW,244,5.0,5.0,82,0.00,,,0.00,Wunderground v.1.15,2013-08-29 02:14:00,
2013-08-28 22:24:00,79.2,73.6,29.91,SW,220,5.0,5.0,83,0.00,,,0.00,Wunderground v.1.15,2013-08-29 02:24:00,
2013-08-28 22:35:00,78.8,73.6,29.92,SW,226,5.0,5.0,84,0.00,,,0.00,Wunderground v.1.15,2013-08-29 02:35:00,
2013-08-28 22:49:00,78.4,73.5,29.92,SW,229,5.0,5.0,85,0.00,,,0.00,Wunderground v.1.15,2013-08-29 02:49:00,
2013-08-28 22:59:00,78.2,73.3,29.92,SW,232,4.0,4.0,85,0.00,,,0.00,Wunderground v.1.15,2013-08-29 02:59:00,
2013-08-28 23:09:00,78.0,73.5,29.91,SW,216,4.0,5.0,86,0.00,,,0.00,Wunderground v.1.15,2013-08-29 03:09:00,
2013-08-28 23:19:00,77.8,73.3,29.92,SW,219,5.0,5.0,86,0.00,,,0.00,Wunderground v.1.15,2013-08-29 03:19:00,
2013-08-28 23:30:00,77.7,73.2,29.91,SSW,212,4.0,7.0,86,0.00,,,0.00,Wunderground v.1.15,2013-08-29 03:30:00,
2013-08-28 23:44:00,77.4,73.2,29.91,SW,220,5.0,6.0,87,0.00,,,0.00,Wunderground v.1.15,2013-08-29 03:44:00,
2013-08-28 23:54:00,77.2,73.0,29.91,WSW,245,5.0,5.0,87,0.00,,,0.00,Wunderground v.1.15,2013-08-29 03:54:00,